Regional Weather Roundup
Issued by NWS Upton, NY

Home | Current Version | Previous Version | Text Only | Print | Product List | Glossary On
Versions: 1 2 3 4 5 6 7 8 9 10 11 12 13 14 15 16 17 18 19 20 21 22 23 24 25 26 27 28 29 30 31 32 33 34 35 36 37 38 39 40 41 42 43 44 45 46 47 48 49 50
000
ASUS41 KOKX 201205
RWROKX

REGIONAL WEATHER ROUNDUP
NATIONAL WEATHER SERVICE NEW YORK NY
800 AM EDT WED AUG 20 2014

NOTE: "FAIR" INDICATES FEW OR NO CLOUDS BELOW 12,000 FEET WITH NO
SIGNIFICANT WEATHER AND/OR OBSTRUCTIONS TO VISIBILITY.

NYZ071-072-176-178-NJZ106-104-201300-
NEW YORK CITY METRO AREA


CITY           SKY/WX    TMP DP  RH WIND       PRES   REMARKS
CENTRAL PARK   CLOUDY    73  64  73 CALM      30.01R
LAGUARDIA APRT PTSUNNY   72  65  78 NE5       29.98R
KENNEDY INTL   PTSUNNY   71  66  84 CALM      30.00R
NEWARK/LIBERTY PTSUNNY   73  65  75 SE3       29.98R
BRNX BOT. GARD   N/A     72  66  83 CALM      30.00S
TETERBORO      CLOUDY    72  65  78 CALM      29.98R
$$

NYZ177-179-078>081-201300-
LONG ISLAND NEW YORK

CITY           SKY/WX    TMP DP  RH WIND       PRES   REMARKS
FARMINGDALE    MOSUNNY   68  65  90 E6        29.99R
ISLIP          MOSUNNY   70  66  87 CALM      29.98R
SHIRLEY        MOSUNNY   66  65  96 CALM      30.00R
WESTHAMPTON    MOSUNNY   68  65  90 CALM      30.01R
MONTAUK POINT    N/A     64  64 100 NE3       30.01R
$$

NYZ052-065-067-201300-
HUDSON VALLEY

CITY           SKY/WX    TMP DP  RH WIND       PRES   REMARKS
WHITE PLAINS   PTSUNNY   67  65  93 SE3       30.00R
NEWBURGH       PTSUNNY   68  66  94 CALM      30.00R
MONTGOMERY     CLOUDY    65  61  87 CALM      29.99R
POUGHKEEPSIE   PTSUNNY   68  64  87 CALM      29.98R
ALBANY         PTSUNNY   62  56  80 CALM      29.99S
$$

NJZ001-105-106-008-010-013-015-019>022-104-201300-
NEW JERSEY

CITY           SKY/WX    TMP DP  RH WIND       PRES   REMARKS
NEWARK/LIBERTY PTSUNNY   73  65  75 SE3       29.98R
TETERBORO      CLOUDY    72  65  78 CALM      29.98R
CALDWELL       CLOUDY    69  63  81 CALM      30.00R
MORRISTOWN     CLOUDY    68  66  94 CALM      30.00R
SOMERVILLE     CLOUDY    69  63  81 CALM      29.98R
LINDEN         PTSUNNY   76  68  78 CALM      30.00R
SUSSEX         MOSUNNY   67  63  87 CALM      29.99R
ANDOVER        NOT AVBL
TRENTON        PTSUNNY   70  64  81 CALM      29.98R
MILLVILLE      CLOUDY    70  65  84 E5        29.98R
ATLANTIC CITY  MOSUNNY   67  64  90 CALM      29.98R
WRIGHTSTOWN    CLOUDY    69  65  90 CALM      29.97R
TOMS RIVER     MOSUNNY   68  64  88 CALM      29.99R
BELMAR         PTSUNNY   70  63  78 NE3       29.98S
$$

PAZ047>061-062-071-201300-
EASTERN PENNSYLVANIA

CITY           SKY/WX    TMP DP  RH WIND       PRES   REMARKS
PHILADELPHIA   PTSUNNY   72  66  81 SE7       29.98R
ALLENTOWN      MOSUNNY   69  64  84 CALM      29.99R
SCRANTON       MOSUNNY   67  61  81 CALM      29.98R
$$

CTZ002-004>006-009-010-012-RIZ004-006-007-MAZ004-011-015-201300-
SOUTHERN NEW ENGLAND
 IN CT

CITY           SKY/WX    TMP DP  RH WIND       PRES   REMARKS
BRADLEY INTL   PTSUNNY   62  56  80 NE5       30.00S
HARTFORD       PTSUNNY   63  58  83 N3        30.01R
DANBURY        CLOUDY    65  62  90 CALM      30.02R FOG
WTRBRY/OXFORD  FOG       63  59  88 CALM      30.03R VSB 0
BRIDGEPORT     CLOUDY    66  64  93 NE7       29.99S FOG
MERIDEN        CLOUDY    63  61  93 NW5       30.01R FOG
NEW HAVEN      CLOUDY    67  65  93 NE5       30.00R FOG
CHESTER        FOG       63  63 100 CALM      30.02R VSB 1/4
GROTON         PTSUNNY   61  61 100 N3        29.99S FOG
WILLIMANTIC    FOG       57  56  96 CALM      30.01S VSB 1/4

 IN RI

CITY           SKY/WX    TMP DP  RH WIND       PRES   REMARKS
PROVIDENCE     PTSUNNY   65  60  84 W3        30.00F
BLOCK ISLAND   MOSUNNY   66  63  88 NE5       30.00S
WESTERLY       FOG      N/A N/A N/A CALM      30.00S VSB 1/4

 IN MA

CITY           SKY/WX    TMP DP  RH WIND       PRES   REMARKS
BOSTON         MOSUNNY   66  56  70 CALM      30.01R
WORCESTER      SUNNY     67  59  75 CALM      30.02S
WESTFIELD      SUNNY     61  56  83 VRB3      30.01S
PROVINCETOWN   SUNNY     66  63  88 MISG      30.01R
NANTUCKET      SUNNY     65  54  67 NE6       30.00R
$$

ANZ330-335-338-340-345-350-353-355-201300-
COASTAL MARINE OBSERVATIONS


STATION/POSITION TIME  SKY/WX   TEMP    WIND        PRES    VSBY  WAVE
                                AIR SEA DIR/SP/G                  HT/PER
                 (UTC)          (F)     (DEG/KT/KT) (MB)    (MI)  (FT/S)
NY HARB ENTRANCE NOT AVBL
4S FIRE IS       NOT AVBL
23SW MTP         1200            71 69              1015.2          1/ 9
HUDSON CANYON    1200            72 72   40/ 12/ 14 1014.3          3/ 6
EXECUTION ROCKS  1200            71 72   90/  6/  6   N/A
WESTERN LI SOUND 1200            69      60/  8/ 10   N/A           0
CENTRAL LI SOUND 1100            65 72   60/  6/  8   N/A           0
EASTERN LI SOUND 1100            64 68   20/  4/  6   N/A
ROBBINS REEF     1200            72     200/  2/  3   N/A
$$


>>>>>>>>>>>>>>>>>>>>>>>>>>>> KEY <<<<<<<<<<<<<<<<<<<<<<<<<<<
>                                                          <
>     SKY/WX - SKY CONDITION/PRESENT WEATHER               <
>     TMP    - TEMPERATURE IN FAHRENHEIT                   <
>     DP     - DEWPOINT IN FAHRENHEIT                      <
>     RH     - RELATIVE HUMIDITY IN PERCENT                <
>     WIND   - DIRECTION AND SPEED IN MPH                  <
>     PRES   - MEAN SEA LEVEL PRESSURE IN INCHES OF HG     <
>     WCI    - WIND CHILL INDEX                            <
>     VSB    - VISIBILITY IN MILES                         <
>     HX     - HEAT INDEX                                  <
>     TC     - TEMPERATURE IN CELSIUS                      <
>     VRB    - VARIABLE WIND DIRECTION                     <
>                                                          <
>>>>>>>>>>>>>>>>>>>>>>>>>>>> KEY <<<<<<<<<<<<<<<<<<<<<<<<<<<




USA.gov is the U.S. government's official web portal to all federal, state and local government web resources and services.